Location: Newark
(49.2194°N, 20.0100°E)
Time: 21:43:35
(UTC+00:00)

N. Korean satellite - Visible Passes

Search period start: 26 February 2021 00:00
Search period end: 08 March 2021 00:00
Orbit: 451 x 503 km, 97.2° (Epoch: 26 February)

Date Brightness Start Highest point End Pass type
(mag) Time Alt. Az. Time Alt. Az. Time Alt. Az.
26 Feb 10.0 02:59:52 10° ENE 03:01:01 11° E 03:02:09 10° ESE visible
26 Feb 6.5 04:31:15 10° N 04:34:41 59° WNW 04:38:09 10° SSW visible
27 Feb 7.0 04:04:30 10° NNE 04:07:58 64° E 04:11:29 10° S visible
28 Feb 8.5 03:38:01 10° NNE 03:41:09 30° E 03:44:20 10° SSE visible
01 Mar 9.7 03:12:00 10° NE 03:14:15 16° E 03:16:29 10° SE visible
01 Mar 6.9 04:44:26 10° N 04:47:45 41° WNW 04:51:06 10° SW visible
02 Mar 6.5 04:17:32 10° NNE 04:21:03 87° WNW 04:24:38 10° SSW visible
03 Mar 7.8 03:50:53 10° NNE 03:54:17 43° E 03:57:42 10° S visible
04 Mar 9.2 03:24:34 10° NE 03:27:23 22° E 03:30:14 10° SSE visible
05 Mar 10.0 02:59:08 10° ENE 03:00:24 12° E 03:01:41 10° ESE visible
05 Mar 6.6 04:30:34 10° N 04:34:04 60° WNW 04:37:36 10° SSW visible
06 Mar 7.0 04:03:47 10° NNE 04:07:19 64° ESE 04:10:53 10° S visible
07 Mar 8.6 03:37:15 10° NNE 03:40:27 30° E 03:43:41 10° SSE visible
